Weather History for KHWY - January, 2014

Change the Weather History Date:

Monday, January 13, 2014

  Actual Average (KHEF) Record (KHEF)
Temperature  
Mean Temperature 42 °F -  
Max Temperature 60 °F 40 °F 69 °F (2005)
Min Temperature 23 °F 21 °F 14 °F (1997)
Degree Days  
Heating Degree Days 24    
Moisture  
Dew Point 36 °F    
Average Humidity 78    
Maximum Humidity 100    
Minimum Humidity 53    
Precipitation  
Precipitation 0.00 in - - ()
Sea Level Pressure  
Sea Level Pressure 30.00 in    
Wind  
Wind Speed 3 mph (SSW)    
Max Wind Speed 13 mph    
Max Gust Speed 21 mph    
Visibility 10 miles    
Events Rain    
Averages and records for this station are not official NWS values.
T = Trace of Precipitation, MM = Missing Value Source: NWS Daily Summary

Daily Weather History Graph

Daily Weather History Graph

Search for Another Location

Airport or City:

Trip Planner

Search our weather history database for the weather conditions in past years. The results will help you decide how hot, cold, wet, or windy it might be!

Date:

Astronomy

Jan. 13, 2014 Rise Set
Actual Time 7:27 AM EST 5:11 PM EST
Civil Twilight 6:58 AM EST 5:40 PM EST
Nautical Twilight 6:25 AM EST 6:13 PM EST
Astronomical Twilight 5:53 AM EST 6:45 PM EST
Moon 3:25 PM EST (1/13) 5:15 AM EST (1/13)
Length of Visible Light 10h 42m
Length of Day
9h 43m
Waxing Gibbous, 95% of the Moon is Illuminated
Jan 13
Waxing Gibbous
Jan 15
Full
Jan 24
Last Quarter
Jan 30
New
Feb 6
First Quarter

Hourly Weather History & Observations

Time (EST) Temp. Windchill Dew Point Humidity Pressure Visibility Wind Dir Wind Speed Gust Speed Precip Events Conditions
12:15 AM 27.0 °F - 27.0 °F 100% 30.09 in 10.0 mi Calm Calm - N/A   Clear
12:35 AM 26.8 °F - 26.8 °F 100% 30.08 in 10.0 mi Calm Calm - N/A   Clear
12:55 AM 26.2 °F - 26.2 °F 100% 30.08 in 10.0 mi Calm Calm - N/A   Clear
1:15 AM 25.7 °F - 25.7 °F 100% 30.08 in 10.0 mi Calm Calm - N/A   Clear
1:35 AM 27.0 °F - 27.0 °F 100% 30.09 in 10.0 mi Calm Calm - N/A   Clear
1:55 AM 26.2 °F - 26.2 °F 100% 30.08 in 10.0 mi Calm Calm - N/A   Clear
2:15 AM 25.9 °F - 25.9 °F 100% 30.08 in 10.0 mi Calm Calm - N/A   Clear
2:35 AM 26.1 °F - 26.1 °F 100% 30.08 in 10.0 mi Calm Calm - N/A   Clear
2:55 AM 26.1 °F - 26.1 °F 100% 30.08 in 10.0 mi Calm Calm - N/A   Clear
3:15 AM 25.5 °F - 25.5 °F 100% 30.08 in 10.0 mi Calm Calm - N/A   Clear
3:35 AM 25.7 °F - 25.7 °F 100% 30.08 in 10.0 mi Calm Calm - N/A   Clear
3:55 AM 26.6 °F - 26.6 °F 100% 30.08 in 10.0 mi Calm Calm - N/A   Clear
4:15 AM 24.8 °F - 24.8 °F 100% 30.08 in 10.0 mi Calm Calm - N/A   Clear
4:35 AM 25.7 °F - 25.7 °F 100% 30.06 in 10.0 mi Calm Calm - N/A   Clear
4:55 AM 23.9 °F - 23.9 °F 100% 30.07 in 10.0 mi Calm Calm - N/A   Clear
5:15 AM 24.8 °F - 24.8 °F 100% 30.08 in 10.0 mi Calm Calm - N/A   Clear
5:35 AM 24.3 °F - 24.3 °F 100% 30.08 in 10.0 mi Calm Calm - N/A   Clear
5:55 AM 25.3 °F - 25.3 °F 100% 30.08 in 10.0 mi Calm Calm - N/A   Clear
6:15 AM 24.8 °F - 24.8 °F 100% 30.08 in 10.0 mi Calm Calm - N/A   Clear
6:35 AM 25.0 °F - 25.0 °F 100% 30.07 in 10.0 mi Calm Calm - N/A   Clear
6:55 AM 25.5 °F - 25.5 °F 100% 30.07 in 10.0 mi Calm Calm - N/A   Clear
7:15 AM 24.8 °F - 24.8 °F 100% 30.08 in 10.0 mi Calm Calm - N/A   Clear
7:35 AM 26.6 °F 22.6 °F 26.6 °F 100% 30.08 in 10.0 mi North 3.5 mph - N/A   Clear
7:55 AM 27.0 °F - 27.0 °F 100% 30.09 in 10.0 mi Calm Calm - N/A   Clear
8:15 AM 28.4 °F - 28.4 °F 100% 30.09 in 10.0 mi Calm Calm - N/A   Clear
8:35 AM 32.0 °F - 32.0 °F 100% 30.09 in 10.0 mi Calm Calm - N/A   Clear
8:55 AM 33.6 °F - 32.9 °F 97% 30.08 in 10.0 mi Calm Calm - N/A   Clear
9:15 AM 36.9 °F - 35.1 °F 93% 30.08 in 10.0 mi Calm Calm - N/A   Clear
9:35 AM 39.2 °F - 35.2 °F 86% 30.07 in 10.0 mi Calm Calm - N/A   Clear
9:55 AM 39.2 °F - 35.8 °F 88% 30.07 in 10.0 mi Calm Calm - N/A   Clear
10:15 AM 41.7 °F - 36.5 °F 82% 30.06 in 10.0 mi Calm Calm - N/A   Clear
10:35 AM 44.1 °F - 38.1 °F 80% 30.06 in 10.0 mi Calm Calm - N/A   Clear
10:55 AM 48.0 °F - 40.5 °F 75% 30.05 in 10.0 mi Calm Calm - N/A   Clear
11:15 AM 50.5 °F - 41.2 °F 70% 30.03 in 10.0 mi SSW 6.9 mph - N/A   Clear
11:35 AM 52.9 °F - 41.5 °F 65% 30.01 in 10.0 mi South 10.4 mph - N/A   Clear
11:55 AM 54.3 °F - 41.9 °F 63% 29.99 in 10.0 mi SSW 9.2 mph 17.3 mph N/A   Clear
12:15 PM 56.1 °F - 42.8 °F 61% 29.98 in 10.0 mi SSW 11.5 mph 18.4 mph N/A   Clear
12:35 PM 56.8 °F - 43.2 °F 60% 29.97 in 10.0 mi SSW 9.2 mph 18.4 mph N/A   Clear
12:55 PM 56.8 °F - 43.3 °F 61% 29.95 in 10.0 mi SW 9.2 mph - N/A   Clear
1:15 PM 58.1 °F - 43.2 °F 58% 29.95 in 10.0 mi SSW 11.5 mph 18.4 mph N/A   Clear
1:35 PM 58.8 °F - 43.0 °F 56% 29.94 in 10.0 mi SSW 9.2 mph 19.6 mph N/A   Clear
1:55 PM 58.3 °F - 42.8 °F 56% 29.93 in 10.0 mi SW 11.5 mph - N/A   Clear
2:15 PM 59.2 °F - 43.0 °F 55% 29.94 in 10.0 mi SSW 11.5 mph 20.7 mph N/A   Clear
2:35 PM 59.7 °F - 43.3 °F 55% 29.93 in 10.0 mi SSW 8.1 mph 18.4 mph N/A   Clear
2:55 PM 60.1 °F - 42.8 °F 53% 29.92 in 10.0 mi South 12.7 mph 18.4 mph N/A   Clear
3:15 PM 59.0 °F - 42.4 °F 54% 29.93 in 10.0 mi SSW 8.1 mph 16.1 mph N/A   Clear
3:35 PM 59.0 °F - 42.4 °F 54% 29.93 in 10.0 mi SSW 8.1 mph - N/A   Clear
3:55 PM 58.1 °F - 43.0 °F 57% 29.95 in 10.0 mi SW 8.1 mph - N/A   Clear
4:15 PM 57.9 °F - 42.1 °F 56% 29.93 in 10.0 mi SW 5.8 mph - N/A   Clear
4:35 PM 56.5 °F - 42.1 °F 59% 29.94 in 10.0 mi SW 3.5 mph - N/A   Clear
4:55 PM 54.9 °F - 41.4 °F 60% 29.93 in 10.0 mi South 3.5 mph - N/A   Clear
5:15 PM 53.1 °F - 41.5 °F 65% 29.93 in 10.0 mi Calm Calm - N/A   Clear
5:35 PM 51.3 °F - 40.8 °F 67% 29.91 in 10.0 mi SSE 4.6 mph - N/A   Clear
5:55 PM 53.6 °F - 40.8 °F 62% 29.92 in 10.0 mi South 3.5 mph - N/A   Clear
6:15 PM 53.6 °F - 41.2 °F 63% 29.92 in 10.0 mi South 3.5 mph - N/A   Clear
6:35 PM 54.0 °F - 41.2 °F 62% 29.92 in 10.0 mi South 5.8 mph - N/A   Clear
6:55 PM 53.8 °F - 41.5 °F 63% 29.92 in 10.0 mi South 4.6 mph - N/A   Clear
7:15 PM 53.6 °F - 41.5 °F 64% 29.92 in 10.0 mi South 5.8 mph - N/A   Clear
7:35 PM 52.9 °F - 41.5 °F 65% 29.92 in 10.0 mi South 4.6 mph - N/A   Clear
7:55 PM 52.9 °F - 41.4 °F 65% 29.92 in 10.0 mi South 5.8 mph - N/A   Clear
8:15 PM 52.7 °F - 41.4 °F 65% 29.91 in 10.0 mi South 8.1 mph - N/A   Clear
8:35 PM 53.4 °F - 41.9 °F 65% 29.91 in 10.0 mi SSW 6.9 mph - N/A   Clear
8:55 PM 53.2 °F - 41.9 °F 65% 29.91 in 10.0 mi South 6.9 mph - N/A   Clear
9:15 PM 53.2 °F - 41.9 °F 65% 29.91 in 10.0 mi SSW 9.2 mph - N/A   Clear
9:35 PM 53.1 °F - 42.1 °F 66% 29.90 in 10.0 mi South 9.2 mph - N/A   Clear
9:55 PM 53.2 °F - 42.1 °F 66% 29.89 in 10.0 mi South 9.2 mph - N/A   Clear
10:15 PM 53.6 °F - 42.1 °F 65% 29.89 in 10.0 mi South 10.4 mph 16.1 mph N/A   Clear
10:35 PM 53.4 °F - 42.1 °F 65% 29.90 in 10.0 mi SSW 10.4 mph 18.4 mph N/A   Clear
10:55 PM 53.2 °F - 42.1 °F 66% 29.90 in 10.0 mi SSW 9.2 mph 16.1 mph N/A   Clear
11:15 PM 52.9 °F - 42.1 °F 67% 29.88 in 10.0 mi South 10.4 mph 16.1 mph N/A   Mostly Cloudy
11:35 PM 53.2 °F - 41.9 °F 65% 29.87 in 10.0 mi South 10.4 mph 18.4 mph N/A Rain Rain
11:55 PM 52.0 °F - 43.0 °F 71% 29.87 in 10.0 mi SSW 9.2 mph - N/A   Light Drizzle